Regional Weather Roundup
Issued by NWS

Home | Current Version | Previous Version | Graphics & Text | Print | Product List | Glossary Off
Versions: 1 2 3 4 5 6 7 8 9 10 11 12 13 14 15 16 17 18 19 20 21 22 23 24 25 26 27 28 29 30 31 32 33 34 35 36 37 38 39 40 41 42 43 44 45 46 47 48 49 50

000
ASUS43 KDMX 270701
RWRIA

WEATHER ROUNDUP FOR IOWA
NATIONAL WEATHER SERVICE DES MOINES IA
200 AM CDT THU JUL 27 2017

NOTE: "FAIR" INDICATES FEW OR NO CLOUDS BELOW 12,000 FEET WITH NO
SIGNIFICANT WEATHER AND/OR OBSTRUCTIONS TO VISIBILITY.

* - THESE STATIONS ARE NOT NWS STATIONS...THUS NOT UNDER NWS
QUALITY CONTROL.  THEY ALSO DO NOT REPORT WEATHER SUCH
AS PRECIPITATION OR FOG.

IAZ001>003-012>014-020>022-031>034-043>046-270800-
   NORTHWEST IOWA

CITY           SKY/WX    TMP DP  RH WIND       PRES   REMARKS
CARROLL *      CLEAR     70  70 100 N7        30.03S
CHEROKEE *     CLEAR     64  64  97 CALM      30.07S
DENISON *      CLEAR     70  66  88 N6        30.06R
ORANGE CITY *  CLEAR     68  63  83 NE5       30.08S
SHELDON *      CLEAR     59  59 100 CALM      30.08R
SIOUX CITY     CLEAR     67  63  87 NW6       30.07R
SPENCER        CLEAR     60  59  96 NW6       30.07S
STORM LAKE *   CLEAR     66  63  88 N9        30.07R
$$

IAZ055>058-069>071-079>083-090>094-270800-
   SOUTHWEST IOWA

CITY           SKY/WX    TMP DP  RH WIND       PRES   REMARKS
ATLANTIC *     PTCLDY    70  70 100 N6        30.01F FOG
AUDUBON *      PTCLDY    70  68  94 CALM      30.04S
CLARINDA *       N/A     73  73 100 N6        30.00S
COUNCIL BLFS * FOG       70  70 100 N5        30.02F VSB<1/4
CRESTON *      CLOUDY    72  72 100 N9        30.00S
HARLAN  *      MOCLDY    70  70 100 N5        30.06S FOG
LAMONI         CLOUDY    74  74 100 N8        29.97F
RED OAK *      CLEAR     72  72 100 N9        29.99F
SHENANDOAH *   CLEAR     73  72  94 NE6       29.99S
$$

IAZ047>049-059>061-072>074-084-270800-
   CENTRAL IOWA

CITY           SKY/WX    TMP DP  RH WIND       PRES   REMARKS
AMES           MOCLDY    71  70  96 N7        29.99F
ANKENY *       CLOUDY    72  68  88 N7        29.99S
BOONE *        CLOUDY    72  70  94 N6        30.00F
CHARITON *     CLOUDY    73  72  94 N7        29.97S
DES MOINES     CLOUDY    73  70  90 N7        29.97F
GRINNELL*      CLOUDY    72  69  91 N5        30.00S
KNOXVILLE *    CLOUDY    73  70  88 N7        29.95F
MARSHALLTOWN   CLOUDY    71  69  93 N3        29.98F
NEWTON *       MOCLDY    72  70  94 N7        29.98F
PELLA *        MOCLDY    72  71  96 NW3       29.98F FOG
PERRY *        CLOUDY    71  70  98 CALM      30.01S
$$

IAZ004>006-015-016-023>025-035-036-270800-
   NORTH CENTRAL IOWA

CITY           SKY/WX    TMP DP  RH WIND       PRES   REMARKS
ALGONA *       CLEAR     64  64 100 N6        30.05S
CLARION *      PTCLDY    66  66 100 N5        30.02F
ESTHERVILLE    CLEAR     63  61  93 N7        30.06R
FORT DODGE *   CLEAR     68  64  88 N6        30.03F
FOREST CITY *    N/A     64  63  94 N5        30.04S
WEBSTER CITY * CLOUDY    70  68  94 N7        30.00S
IOWA FALLS *   CLOUDY    72  69  93 NW6       30.02S
$$

IAZ007>011-017>019-026>030-037>042-050>054-066-270800-
   NORTHEAST IOWA

CITY           SKY/WX    TMP DP  RH WIND       PRES   REMARKS
CHARLES CITY * CLEAR     68  68 100 N6        30.01F
DECORAH *      CLOUDY    70  68  94 N3        30.00S
DUBUQUE          N/A    N/A N/A N/A MISG      29.97F
MONTICELLO *   CLOUDY    72  70  94 N3        29.96S
OELWEIN *      CLOUDY    72  72 100 N6        29.99F
WATERLOO       CLOUDY    70  67  90 NW5       29.98S
$$

IAZ064-065-067-068-078-270800-
   EAST CENTRAL IOWA

CITY           SKY/WX    TMP DP  RH WIND       PRES   REMARKS
DAVENPORT      CLOUDY    71  70  96 NW3       29.95F
IOWA CITY      CLOUDY    76  69  79 N8        29.95F
MUSCATINE *    CLOUDY    73  72  94 CALM      29.94F FOG
QUAD CITIES    CLOUDY    74  71  91 CALM      29.92F
$$

IAZ062-063-075>077-085>089-095>099-270800-
   SOUTHEAST IOWA

CITY           SKY/WX    TMP DP  RH WIND       PRES   REMARKS
BURLINGTON     CLOUDY    74  74 100 NW3       29.93F
FAIRFIELD *    CLOUDY    73  72  94 CALM      29.94F
FORT MADISON * CLOUDY    75  75 100 CALM      29.94F FOG
KEOKUK *       CLOUDY    75  73  94 CALM      29.93F
OSKALOOSA *      N/A     70  69  96 W3        29.97S
OTTUMWA        MOCLDY    72  72 100 N7        29.95F
WASHINGTON *   CLOUDY    73  73 100 N5        29.95F
$$

ABBREVIATIONS USED IN REMARKS
   TC - TEMPERATURES IN CELSIUS
  WCI - WIND CHILL INDEX
   HX - HEAT INDEX
  VSB - VISIBILITY
$$





USA.gov is the U.S. government's official web portal to all federal, state and local government web resources and services.